sat.trackr.live / text

‹ back to catalog

MEV-1

NORAD 44625 · 2019-067B

PAYLOAD ACTIVE UNKNOWN

§ Identity

Operator
Country
US
Launch date
2019-10-09
Launch site
TYMSC
Launch vehicle
Mass (kg)
RCS (m²)

Purposes: comms

External: N2YO · Heavens-Above · Gunter

§ Orbital elements

Epoch: 2026-09-19T22:50:47.515776Z

Period
1,436.08 min
Inclination
0.8071°
Eccentricity
0.0004219
Mean motion
1.00272795 rev/d
Perigee alt
35,768.5 km
Apogee alt
35,804.1 km
Semi-major
42,164.4 km
B*
0.0000e+0
RAAN
267.9291°
Arg perigee
268.9429°
Mean anomaly
320.8390°
Rev number
6,249

§ Raw data

MEV-11 44625U 19067B   26262.95193884 -.00000150  00000+0  00000+0 0  99942 44625   0.8071 267.9291 0004219 268.9429 320.8390  1.00272795 62490

JSON: /api/v1/satellites/44625 · /tle

For live sub-satellite position, see the globe view (requires WebGL).

§ Visibility from observer

Set your observer location to see the next 7 days of passes ≥ 10°. The values pass through the URL so the page stays shareable.

No JS? Fill the form by hand. The geolocation button needs JavaScript.